Weather History for KEMP - February, 2013

Change the Weather History Date:

Friday, February 8, 2013

  Actual Average Record
Temperature  
Mean Temperature 35 °F 33 °F  
Max Temperature 41 °F 44 °F 72 °F (2015)
Min Temperature 28 °F 23 °F 0 °F (2004)
Degree Days  
Heating Degree Days 30 32  
Month to date heating degree days 218 259  
Since 1 July heating degree days 2935 3247  
Cooling Degree Days 0 0  
Month to date cooling degree days 0 0  
Year to date cooling degree days 0 0  
Moisture  
Dew Point 27 °F    
Average Humidity 78    
Maximum Humidity 92    
Minimum Humidity 64    
Precipitation  
Precipitation 0.00 in 0.05 in 0.79 in (2001)
Month to date precipitation 1.35 0.35  
Year to date precipitation 1.84 0.98  
Sea Level Pressure  
Sea Level Pressure 30.29 in    
Wind  
Wind Speed 8 mph (ENE)    
Max Wind Speed 15 mph    
Max Gust Speed 20 mph    
Visibility 5 miles    
Events      
T = Trace of Precipitation, MM = Missing Value Source: NWS Daily Summary

Daily Weather History Graph

Daily Weather History Graph

Search for Another Location

Airport or City:

Trip Planner

Search our weather history database for the weather conditions in past years. The results will help you decide how hot, cold, wet, or windy it might be!

Date:

Astronomy

Feb. 08, 2013 Rise Set
Actual Time 7:22 AM CST 5:55 PM CST
Civil Twilight 6:55 AM CST 6:23 PM CST
Nautical Twilight 6:24 AM CST 6:54 PM CST
Astronomical Twilight 5:53 AM CST 7:25 PM CST
Moon 5:51 AM CST (2/8) 4:30 PM CST (2/8)
Length of Visible Light 11h 27m
Length of Day
10h 32m
Waning Crescent, 3% of the Moon is Illuminated
Feb 8
Waning Crescent
Feb 10
New
Feb 17
First Quarter
Feb 25
Full
Mar 4
Last Quarter

Hourly Weather History & Observations

Time (CST) Temp. Windchill Dew Point Humidity Pressure Visibility Wind Dir Wind Speed Gust Speed Precip Events Conditions
12:53 AM 30.9 °F 23.5 °F 28.0 °F 89% 30.26 in 4.0 mi North 8.1 mph - N/A   Overcast
1:53 AM 30.0 °F 21.7 °F 27.0 °F 88% 30.26 in 5.0 mi North 9.2 mph - N/A   Overcast
2:53 AM 28.9 °F 21.1 °F 26.1 °F 89% 30.27 in 4.0 mi NNE 8.1 mph - N/A   Overcast
3:53 AM 28.9 °F 21.1 °F 26.1 °F 89% 30.28 in 3.0 mi North 8.1 mph - N/A   Overcast
4:44 AM 30.2 °F 23.4 °F 26.6 °F 86% 30.27 in 2.5 mi NNE 6.9 mph - N/A   Overcast
4:53 AM 28.9 °F 20.4 °F 26.1 °F 89% 30.31 in 2.5 mi NNE 9.2 mph - N/A   Overcast
5:53 AM 28.9 °F 21.1 °F 26.1 °F 89% 30.31 in 2.5 mi NNE 8.1 mph - N/A   Overcast
6:53 AM 28.0 °F 20.8 °F 25.0 °F 88% 30.33 in 2.5 mi NNE 6.9 mph - N/A   Overcast
7:29 AM 28.4 °F 21.2 °F 24.8 °F 86% 30.30 in 3.0 mi NE 6.9 mph - N/A   Overcast
7:42 AM 28.4 °F 20.4 °F 24.8 °F 86% 30.30 in 2.0 mi NE 8.1 mph - N/A   Overcast
7:53 AM 28.0 °F 20.8 °F 25.0 °F 88% 30.35 in 2.5 mi NNE 6.9 mph - N/A   Overcast
8:11 AM 28.4 °F 20.4 °F 26.6 °F 93% 30.31 in 3.0 mi ENE 8.1 mph - N/A   Overcast
8:53 AM 28.0 °F 20.0 °F 26.1 °F 92% 30.36 in 4.0 mi ENE 8.1 mph - N/A   Overcast
9:53 AM 28.9 °F 20.4 °F 26.1 °F 89% 30.36 in 4.0 mi East 9.2 mph - N/A   Overcast
10:53 AM 30.9 °F 26.2 °F 26.1 °F 82% 30.37 in 3.0 mi NE 4.6 mph - N/A   Haze
11:53 AM 32.0 °F 28.7 °F 26.1 °F 79% 30.39 in 5.0 mi SSE 3.5 mph - N/A   Haze
12:53 PM 35.1 °F 31.0 °F 28.0 °F 76% 30.35 in 5.0 mi NE 4.6 mph - N/A   Haze
1:19 PM 35.6 °F 32.8 °F 28.4 °F 75% 30.31 in 7.0 mi East 3.5 mph - N/A   Scattered Clouds
1:53 PM 37.9 °F 35.5 °F 28.9 °F 70% 30.32 in 9.0 mi East 3.5 mph - N/A   Clear
2:53 PM 39.0 °F 34.8 °F 28.9 °F 67% 30.28 in 10.0 mi ESE 5.8 mph - N/A   Clear
3:53 PM 39.9 °F 34.5 °F 30.0 °F 68% 30.27 in 9.0 mi SE 8.1 mph - N/A   Clear
4:53 PM 39.9 °F 33.9 °F 30.9 °F 70% 30.26 in 10.0 mi ESE 9.2 mph - N/A   Clear
5:53 PM 37.0 °F 30.4 °F 30.0 °F 76% 30.25 in 10.0 mi ESE 9.2 mph - N/A   Clear
6:53 PM 34.0 °F 28.0 °F 30.0 °F 85% 30.26 in 9.0 mi SSE 6.9 mph - N/A   Clear
7:53 PM 32.0 °F 25.6 °F 28.9 °F 88% 30.24 in 7.0 mi SE 6.9 mph - N/A   Clear
8:53 PM 33.1 °F 26.9 °F 30.0 °F 89% 30.23 in 5.0 mi SE 6.9 mph - N/A   Clear
9:53 PM 33.1 °F 24.4 °F 28.9 °F 85% 30.23 in 6.0 mi SE 11.5 mph - N/A   Clear
10:53 PM 32.0 °F 23.0 °F 28.9 °F 88% 30.21 in 6.0 mi SE 11.5 mph - N/A   Clear
11:53 PM 32.0 °F 23.0 °F 28.9 °F 88% 30.19 in 7.0 mi SE 11.5 mph - N/A   Clear